sat.trackr.live / text

‹ back to catalog

ONEWEB-0374

NORAD 49300 · 2021-090X

PAYLOAD ACTIVE UNKNOWN

§ Identity

Operator
Country
UK
Launch date
2021-10-14
Launch site
VOSTO
Launch vehicle
Mass (kg)
RCS (m²)

Purposes: comms

External: N2YO · Heavens-Above · Gunter

§ Orbital elements

Epoch: 2026-09-09T18:16:46.720704Z

Period
109.55 min
Inclination
87.8907°
Eccentricity
0.0002220
Mean motion
13.14502320 rev/d
Perigee alt
1,204.1 km
Apogee alt
1,207.5 km
Semi-major
7,583.9 km
B*
3.0861e-4
RAAN
272.8363°
Arg perigee
106.6477°
Mean anomaly
253.4897°
Rev number
23,867

§ Raw data

ONEWEB-03741 49300U 21090X   26252.76165186  .00000127  00000+0  30861-3 0  99952 49300  87.8907 272.8363 0002220 106.6477 253.4897 13.14502320238670

JSON: /api/v1/satellites/49300 · /tle

For live sub-satellite position, see the globe view (requires WebGL).

§ Visibility from observer

Set your observer location to see the next 7 days of passes ≥ 10°. The values pass through the URL so the page stays shareable.

No JS? Fill the form by hand. The geolocation button needs JavaScript.